Regional Weather Roundup
Issued by NWS Wakefield, VA

Home | Current Version | Previous Version | Graphics & Text | Print | Product List | Glossary On
Versions: 1 2 3 4 5 6 7 8 9 10 11 12 13 14 15 16 17 18 19 20 21 22 23 24 25 26 27 28 29 30 31 32 33 34 35 36
000
ASUS41 KAKQ 221310
RWRAKQ

REGIONAL WEATHER ROUNDUP
NATIONAL WEATHER SERVICE WAKEFIELD VA
900 AM EDT WED OCT 22 2014

Note: "fair" indicates few or no clouds below 12,000 feet with no
significant weather and/or obstructions to visibility. * = Denotes
station may not report precipitation (e.g., rain,snow,etc.),
thunder or fog.

VAZ042-051-052>054-056-221400-
NORTHERN VIRGINIA

CITY           SKY/WX    TMP DP  RH WIND       PRES   REMARKS
WASH NATIONAL  LGT RAIN  56  50  80 N13       29.91R
DULLES         LGT RAIN  52  48  87 NW12      29.94R
FORT BELVOIR   RAIN      53  51  91 NW10G18   29.92R FOG
QUANTICO       RAIN      54  50  86 N15G26    29.93R FOG
FREDERICKSBRG* RAIN      54  54 100 NW9       29.92R
STAFFORD*      RAIN      52  52 100 NW10      29.97R
WARRENTON      RAIN      54  54 100 NW9G16    29.94R
CULPEPER*      LGT RAIN  54  50  87 N8        29.96R
MANASSAS*      CLOUDY    54  54 100 N9        29.94R
LEESBURG*      CLOUDY    54  52  94 N15G22    29.95S
WINCHESTER     CLOUDY    54  43  66 NW12G21   29.99R
FRONT ROYAL*   CLOUDY    52  46  82 NW12      29.98R
LURAY*         CLOUDY    54  46  76 N18G24    29.99R
$$

VAZ048-049-060>072-079>083-221400-
CENTRAL AND SOUTH CENTRAL VIRGINIA...AND NORTH CENTRAL NORTH CAROLINA

CITY           SKY/WX    TMP DP  RH WIND       PRES   REMARKS
RICHMOND       RAIN      53  50  89 NW16G23   29.90R
CHESTERFIELD*  CLOUDY    52  39  62 NW15      29.92R
PETERSBURG*    LGT RAIN  51  49  92 NW8       29.92R
HANOVER        LGT RAIN  52  50  93 VRB7      29.92R
TAPPAHANNOCK*  CLOUDY    54  49  84 NW6       29.88R
CHARLOTTSVILLE PTSUNNY   54  45  71 N12G21    29.96R
ORANGE*        CLOUDY    54  48  82 NW7       29.96R
LOUISA*        RAIN      52  48  87 NW6       29.93R
FARMVILLE*     LGT RAIN  52  48  87 NW3       29.95R
CREWE*         CLOUDY    50  47  88 NW9       29.95R
FORT PICKETT*  CLOUDY    50  48  93 NW9       29.94R
LUNENBURG*     CLOUDY    49  48  93 NW3       29.95R
SOUTH HILL*    RAIN      52  46  82 NW6       30.00R
LAWRENCEVILLE* CLOUDY    50  48  93 NW7       29.94R
ROANOKE RAPIDS CLOUDY    52  46  82 NW7       29.94R
RALEIGH        MOSUNNY   53  38  56 N13G18    29.99R
$$

VAZ088>098-221400-
SOUTHEAST VIRGINIA

CITY           SKY/WX    TMP DP  RH WIND       PRES   REMARKS
NORFOLK        LGT RAIN  54  51  90 W9G17     29.84R
VIRGINIA BEACH LGT RAIN  56  52  86 W14       29.83R FOG
NORFOLK NAVAL  LGT RAIN  56  52  86 W14G25    29.85S FOG
WEST POINT*    CLOUDY    55  52  87 NW7       29.88R
NEWPORT NEWS   CLOUDY    56  51  84 NW9       29.85S
LANGLEY AFB    LGT RAIN  53  53 100 W10       29.85S
FORT EUSTIS    NOT AVBL
WILLIAMSBURG*  MOSUNNY   55  52  88 NW12G18   29.87R
HR EXEC AP*    CLOUDY    54  48  82 NW12G22   29.88R
FRANKLIN*      CLOUDY    52  52 100 NW12      29.89R
WAKEFIELD      LGT RAIN  52  50  93 W5        29.89R
$$

VAZ020-022-025-037-045-221400-
WEST CENTRAL AND SOUTHWEST VIRGINIA

CITY           SKY/WX    TMP DP  RH WIND       PRES   REMARKS
STAUNTON*      CLOUDY    51  43  74 NW8       30.02R
HOT SPRINGS VA CLOUDY    39  38  94 NW16G22   30.01R
LYNCHBURG      CLOUDY    51  41  68 NW5       30.01R
DANVILLE       SUNNY     51  39  63 NW9       30.01R
SOUTH BOSTON*  NOT AVBL
MARTINSVILLE   SUNNY     52  39  61 N6        30.06R
ROANOKE        MOSUNNY   52  38  58 VRB7      30.06R
BLACKSBURG     PTSUNNY   46  43  87 NW18      30.09R
DUBLIN*        CLOUDY    46  40  82 NW5       30.11R
MARION*        CLOUDY    44  37  77 NW10      30.15R
HILLSVILLE*    CLOUDY    42  36  77 NW16      30.08R
RICHLANDS*     CLOUDY    43  41  92 NW9       30.14R FOG
WISE*          CLOUDY    41  41 100 NW7       30.17R
ABINGDON*      CLOUDY    45  39  78 CALM      30.16R
$$

MDZ021>025-VAZ099-100-221400-
SOUTHERN MARYLAND AND THE DELMARVA PENINSULA

CITY           SKY/WX    TMP DP  RH WIND       PRES   REMARKS
PATUXENT RIVER LGT RAIN  55  52  89 NW17      29.84R
BAY BRIDGE APT LGT RAIN  54  54 100 N16G23    29.88R
LEONARDTOWN    CLOUDY    54  50  87 NW6G17    29.87S
DOVER          CLOUDY    57  57 100 N9        29.83S
GEORGETOWN     MOSUNNY   59  55  87 N9        29.82F
EASTON         LGT RAIN  55  55 100 N10       29.89R FOG
CAMBRIDGE      CLOUDY    55  52  88 N13       29.84S VSB<1/4
SALISBURY      CLOUDY    58  54  86 N7        29.81S FOG
OCEAN CITY     PTSUNNY   57  55  93 N8        29.80S FOG
WALLOPS ISLAND CLOUDY    57  54  89 N12       29.81S FOG
ACCOMACK*      MOSUNNY   54  52  94 N7        29.80S FOG
$$

NCZ012>017-030>032-221400-
EASTERN NORTH CAROLINA

CITY           SKY/WX    TMP DP  RH WIND       PRES   REMARKS
ELIZABETH CITY CLOUDY    56  50  80 NW14G21   29.86R
AHOSKIE*       CLOUDY    51  47  87 NW3       29.92R
EDENTON*       PTSUNNY   54  50  89 NW8       29.89R
CURRITUCK*     PTSUNNY   55  50  85 W10G17    29.85S
KILL DEVIL HLS CLOUDY    56  52  86 W13G21    29.83R
MANTEO         CLOUDY    56  50  81 NW12G22   29.85S
CAPE HATTERAS  MOSUNNY   58  53  84 NW13G22   29.86R
TARBORO*       MOSUNNY   53  48  83 NW9G17    29.95R
GOLDSBORO      SUNNY     53  48  82 NW5       29.94R
WASHINGTON     SUNNY     53  47  81 NW10G17   29.92S
GREENVILLE     SUNNY     54  46  76 NW6       29.95S
NEW BERN       SUNNY     56  46  69 W7        29.94R
WILMINGTON     SUNNY     54  44  69 NW10      29.98R
$$

VAZ048-221400-
ELSEWHERE

CITY           SKY/WX    TMP DP  RH WIND       PRES   REMARKS
HARRISBURG PA  CLOUDY    56  47  71 N13       29.95R
BALTIMORE      HVY RAIN  54  52  94 N8        29.90R FOG
ANNAPOLIS      LGT RAIN  56  52  86 N12       29.88S FOG
ANDREWS AFB    LGT RAIN  53  52  97 N12       29.89R
WILMINGTON DE  CLOUDY    56  53  90 N13       29.88R
PHILADELPHIA   CLOUDY    58  52  80 NE18      29.87S
WILDWOOD NJ*   PTSUNNY   55  50  82 N8        29.84R
ATLANTIC CITY  PTSUNNY   55  52  89 N12       29.83F
HENDERSON NC   MOSUNNY   51  40  66 NW9G16    29.98R
GREENSBORO     MOSUNNY   50  40  68 NW7       30.03R
ROCKY MOUNT    SUNNY     53  44  71 NW10G18   29.95R
FAYETTEVILLE   SUNNY     55  40  56 NW16      29.99R
CHARLOTTE      MOSUNNY   50  37  61 NW8       30.07R
$$

VAZ100-221400-
MARINE

STATION/POSITION TIME  TEMP    WIND        PRES    WAVE   SWELL
                       AIR SEA DIR/SP/G            HT/PER HT/PER
                 (UTC) (F)     (DEG/KT/KT) (MB)    (FT/S) (FT/S)
44066 TX TWR #4  1300   66 66   80/ 21/ 25 1006.8F
CAPE MAY NJ      1300   56 67   10/  5/ 10 1009.3R
LEWES DE         1300   59 63   20/ 16/ 18 1009.3F
15NM E FENWICK I 1300   63 66  350/ 12/ 14 1008.3R   3/ 9   2/ 9
OCEAN-CITY-INLET 1300   58 65   10/ 11/ 14 1008.5S
WACHAPREAGUE VA  1300   55 63   10/  5/ 10 1009.1S
THOMAS POINT MD  1300   55 64  360/ 20/ 23 1012.3R
GOOSES REEF MD   1300   58      10/ 21/ 27 1011.2R
COVE POINT MD    1300   58      10/ 21/ 26 1010.4R
SOLOMONS ISLAND  1300      65                N/A
BISHOPS HEAD MD  1300   56 60  360/  9/ 15 1009.5R
PINEY POINT MD   1300           10/ 15/ 18   N/A
POTOMAC MD       1300   57     350/ 14/ 17 1009.6S
CAMBRIDGE MD     1300   56 63   10/ 14/ 18 1010.2S
LEWISETTA VA     1300   56 63  350/ 12/ 17 1010.3R
RAPPAHANNOCK LGT 1300          360/ 24/ 26 1009.5R
STINGRAY PT      1300   57     330/ 17/ 21 1010.1R
YORK RVR RNG VA  1300   56     320/ 16/ 19 1009.7R
YORKTOWN VA      1300   56 67  320/ 21/ 24 1010.1R
JAMESTOWN VA     1300   53     340/ 17/ 21   N/A
DOMINION TERM VA 1300   56     300/ 21/ 25 1010.2R
KIPTOPEKE VA     1300      69  310/ 22/ 25   N/A
CHES BAY BRIDGE  1300   56 67  280/ 19/ 22 1009.5S
CHESAPEAKE LGHT  1200   58     300/ 25/ 27 1009.0R
WILLOUBY STN VA  1300   53     300/ 19/ 22 1009.0F
S CRANEY ISL VA  1300          270/ 12/ 21 1010.3S
CAPE HENRY BUOY  1300      68                N/A     4/ 5
1ST LANDING BUOY 1300   57     290/ 19/ 25 1009.4R
CAPE CHARLES BUO 1300      68                N/A     4/ 4   2/ 9
64NM E OF VA BCH 1300   63 69  270/ 16/ 21 1007.6R   4/ 7   2/ 8
DUCK PIER NC     1300   55 68  300/ 18/ 22 1009.5F
44100 DUCK FRF   1300      71                N/A     4/ 4   2/11
44056 DUCK FRF   1300                        N/A     3/11   2/11
OREGON INLET NC  1300   57 67  290/ 16/ 22 1010.2S
HATTERAS NC      1300   58 70  300/ 19/ 23 1011.6R
DIAMOND SHLS NC  1300   62     300/ 21/ 25 1010.6R   4/ 5   2/ 9
CAPE LOOKOUT NC  1200   57     330/ 16/ 19 1012.3R
$$



USA.gov is the U.S. government's official web portal to all federal, state and local government web resources and services.